Tracking 35274 objects as of 11-Sep-2026
HD Live streaming from Space Station
objects crossing your sky now

STARLINK-34709

Track STARLINK-34709 now!
10-day predictions
STARLINK-34709 is classified as:


NORAD ID: 64844
Int'l Code: 2025-152C
Launch date: July 19, 2025
Source: United States (US)
Launch site: AIR FORCE WESTERN TEST RANGE (AFWTR)
Your satellite tracking list
Your tracking list is empty




NASA's NSSDC Master Catalog

Two Line Element Set (TLE):
1 64844U 25152C   26253.54806801  .00018189  00000-0  56435-3 0  9994
2 64844  97.2836 104.1671 0001934  19.3509 340.7807 15.33446351 63291
Source of the keplerian elements: AFSPC